• In Uzbekistan
  • List of Countries
  • For 7 days
  • Water Temperature
  • Satellite Maps
  • Weather Map
  • Weather Widgets
  • user-avatar
    Login

    Hourly Weather Lubango

    Today, 23 June, Friday

    Time Temperature Precipitation Wind Pressure Humidity
    00:00 +8°C° 0 mm 2 mps 608 mmHg 46%
    01:00 +7°C° 0 mm 2 mps 608 mmHg 46%
    02:00 +7°C° 0 mm 2 mps 608 mmHg 45%
    03:00 +7°C° 0 mm 2 mps 608 mmHg 45%
    04:00 +7°C° 0 mm 2 mps 608 mmHg 44%
    05:00 +7°C° 0 mm 2 mps 608 mmHg 44%
    06:00 +7°C° 0 mm 2 mps 608 mmHg 44%
    07:00 +8°C° 0 mm 2 mps 608 mmHg 44%
    08:00 +11°C° 0 mm 3 mps 610 mmHg 37%
    09:00 +16°C° 0 mm 3 mps 611 mmHg 29%
    10:00 +19°C° 0 mm 4 mps 612 mmHg 22%
    11:00 +21°C° 0 mm 4 mps 612 mmHg 20%
    12:00 +22°C° 0 mm 3 mps 612 mmHg 18%
    13:00 +25°C° 0 mm 3 mps 612 mmHg 16%
    14:00 +24°C° 0 mm 2 mps 612 mmHg 16%
    15:00 +24°C° 0 mm 2 mps 611 mmHg 15%
    16:00 +24°C° 0 mm 2 mps 611 mmHg 15%
    17:00 +20°C° 0 mm 1 mps 609 mmHg 25%
    18:00 +14°C° 0 mm 1 mps 608 mmHg 35%
    19:00 +10°C° 0 mm 1 mps 606 mmHg 44%
    20:00 +9°C° 0 mm 1 mps 606 mmHg 47%
    21:00 +9°C° 0 mm 1 mps 606 mmHg 49%
    22:00 +8°C° 0 mm 1 mps 606 mmHg 52%
    23:00 +8°C° 0 mm 1 mps 606 mmHg 48%

    Tomorrow, 24 June, Saturday

    Time Temperature Precipitation Wind Pressure Humidity
    00:00 +7°C° 0 mm 2 mps 606 mmHg 44%
    01:00 +8°C° 0 mm 2 mps 607 mmHg 41%
    02:00 +8°C° 0 mm 2 mps 607 mmHg 42%
    03:00 +8°C° 0 mm 2 mps 607 mmHg 43%
    04:00 +8°C° 0 mm 2 mps 606 mmHg 44%
    05:00 +8°C° 0 mm 2 mps 607 mmHg 45%
    06:00 +8°C° 0 mm 3 mps 607 mmHg 46%
    07:00 +8°C° 0 mm 3 mps 607 mmHg 47%
    08:00 +12°C° 0 mm 3 mps 609 mmHg 40%
    09:00 +15°C° 0 mm 4 mps 611 mmHg 33%
    10:00 +20°C° 0 mm 4 mps 612 mmHg 26%
    11:00 +21°C° 0 mm 4 mps 612 mmHg 23%
    12:00 +24°C° 0 mm 3 mps 612 mmHg 20%
    13:00 +25°C° 0 mm 3 mps 612 mmHg 17%
    14:00 +25°C° 0 mm 3 mps 612 mmHg 17%
    15:00 +25°C° 0 mm 3 mps 611 mmHg 16%
    16:00 +25°C° 0 mm 2 mps 611 mmHg 16%
    17:00 +19°C° 0 mm 2 mps 609 mmHg 29%
    18:00 +14°C° 0 mm 1 mps 607 mmHg 42%
    19:00 +9°C° 0 mm 1 mps 605 mmHg 55%
    20:00 +9°C° 0 mm 1 mps 605 mmHg 61%
    21:00 +8°C° 0 mm 1 mps 605 mmHg 66%
    22:00 +6°C° 0 mm 0 mps 605 mmHg 72%
    23:00 +6°C° 0 mm 0 mps 605 mmHg 73%

    Day after tomorrow, 25 June, Sunday

    Time Temperature Precipitation Wind Pressure Humidity
    00:00 +5°C° 0 mm 0 mps 605 mmHg 73%
    01:00 +5°C° 0 mm 0 mps 605 mmHg 74%
    02:00 +5°C° 0 mm 0 mps 604 mmHg 73%
    03:00 +6°C° 0 mm 1 mps 604 mmHg 73%
    04:00 +5°C° 0 mm 1 mps 604 mmHg 72%
    05:00 +6°C° 0 mm 1 mps 604 mmHg 67%
    06:00 +7°C° 0 mm 1 mps 605 mmHg 62%
    07:00 +7°C° 0 mm 1 mps 605 mmHg 56%
    08:00 +12°C° 0 mm 1 mps 607 mmHg 44%
    09:00 +18°C° 0 mm 1 mps 610 mmHg 31%
    10:00 +23°C° 0 mm 1 mps 612 mmHg 19%
    11:00 +24°C° 0 mm 2 mps 612 mmHg 18%
    12:00 +25°C° 0 mm 2 mps 612 mmHg 17%
    13:00 +26°C° 0 mm 3 mps 611 mmHg 15%
    14:00 +26°C° 0 mm 3 mps 611 mmHg 16%
    15:00 +26°C° 0 mm 3 mps 610 mmHg 16%
    16:00 +25°C° 0 mm 3 mps 610 mmHg 16%
    17:00 +19°C° 0 mm 2 mps 608 mmHg 30%
    18:00 +15°C° 0 mm 2 mps 607 mmHg 43%
    19:00 +10°C° 0 mm 1 mps 605 mmHg 56%
    20:00 +9°C° 0 mm 1 mps 605 mmHg 62%
    21:00 +8°C° 0 mm 1 mps 605 mmHg 67%
    22:00 +7°C° 0 mm 1 mps 605 mmHg 72%
    23:00 +7°C° 0 mm 1 mps 605 mmHg 72%

    26 June, Monday

    Time Temperature Precipitation Wind Pressure Humidity
    00:00 +7°C° 0 mm 1 mps 604 mmHg 73%
    01:00 +7°C° 0 mm 1 mps 604 mmHg 73%
    02:00 +7°C° 0 mm 1 mps 604 mmHg 71%
    03:00 +6°C° 0 mm 1 mps 604 mmHg 70%
    04:00 +6°C° 0 mm 1 mps 603 mmHg 69%
    05:00 +7°C° 0 mm 1 mps 604 mmHg 65%
    06:00 +7°C° 0 mm 1 mps 605 mmHg 62%
    07:00 +7°C° 0 mm 1 mps 605 mmHg 59%
    08:00 +13°C° 0 mm 1 mps 608 mmHg 46%
    09:00 +19°C° 0 mm 1 mps 610 mmHg 33%
    10:00 +24°C° 0 mm 1 mps 612 mmHg 20%
    11:00 +25°C° 0 mm 2 mps 612 mmHg 19%
    12:00 +26°C° 0 mm 2 mps 612 mmHg 18%
    13:00 +27°C° 0 mm 3 mps 612 mmHg 17%
    14:00 +26°C° 0 mm 3 mps 611 mmHg 17%
    15:00 +26°C° 0 mm 3 mps 611 mmHg 17%
    16:00 +25°C° 0 mm 3 mps 610 mmHg 17%
    17:00 +20°C° 0 mm 2 mps 609 mmHg 28%
    18:00 +16°C° 0 mm 2 mps 608 mmHg 38%
    19:00 +11°C° 0 mm 1 mps 606 mmHg 48%
    20:00 +10°C° 0 mm 1 mps 607 mmHg 50%
    21:00 +10°C° 0 mm 1 mps 607 mmHg 52%
    22:00 +9°C° 0 mm 1 mps 607 mmHg 54%
    23:00 +9°C° 0 mm 1 mps 607 mmHg 54%

    27 June, Tuesday

    Time Temperature Precipitation Wind Pressure Humidity
    00:00 +9°C° 0 mm 1 mps 607 mmHg 54%
    01:00 +9°C° 0 mm 1 mps 606 mmHg 55%
    02:00 +8°C° 0 mm 1 mps 606 mmHg 56%
    03:00 +8°C° 0 mm 1 mps 606 mmHg 57%
    04:00 +8°C° 0 mm 1 mps 606 mmHg 58%
    05:00 +8°C° 0 mm 1 mps 606 mmHg 58%
    06:00 +8°C° 0 mm 1 mps 606 mmHg 58%
    07:00 +8°C° 0 mm 1 mps 607 mmHg 57%
    08:00 +14°C° 0 mm 1 mps 609 mmHg 44%
    09:00 +20°C° 0 mm 1 mps 612 mmHg 31%
    10:00 +25°C° 0 mm 1 mps 614 mmHg 18%
    11:00 +26°C° 0 mm 1 mps 614 mmHg 17%
    12:00 +27°C° 0 mm 2 mps 613 mmHg 16%
    13:00 +28°C° 0 mm 2 mps 613 mmHg 15%
    14:00 +27°C° 0 mm 2 mps 613 mmHg 16%
    15:00 +26°C° 0 mm 3 mps 612 mmHg 16%
    16:00 +26°C° 0 mm 3 mps 612 mmHg 16%
    17:00 +21°C° 0 mm 2 mps 610 mmHg 22%
    18:00 +17°C° 0 mm 2 mps 609 mmHg 27%
    19:00 +12°C° 0 mm 2 mps 608 mmHg 33%
    20:00 +12°C° 0 mm 1 mps 608 mmHg 34%
    21:00 +11°C° 0 mm 1 mps 608 mmHg 36%
    22:00 +10°C° 0 mm 1 mps 608 mmHg 37%
    23:00 +10°C° 0 mm 1 mps 608 mmHg 39%

    28 June, Wednesday

    Time Temperature Precipitation Wind Pressure Humidity
    00:00 +9°C° 0 mm 1 mps 607 mmHg 41%
    01:00 +9°C° 0 mm 1 mps 607 mmHg 42%
    02:00 +9°C° 0 mm 1 mps 607 mmHg 45%
    03:00 +8°C° 0 mm 1 mps 606 mmHg 47%
    04:00 +8°C° 0 mm 1 mps 606 mmHg 50%
    05:00 +8°C° 0 mm 1 mps 607 mmHg 48%
    06:00 +8°C° 0 mm 1 mps 607 mmHg 47%
    07:00 +9°C° 0 mm 1 mps 607 mmHg 46%
    08:00 +14°C° 0 mm 1 mps 610 mmHg 36%
    09:00 +20°C° 0 mm 1 mps 612 mmHg 25%
    10:00 +25°C° 0 mm 1 mps 614 mmHg 15%
    11:00 +26°C° 0 mm 1 mps 614 mmHg 14%
    12:00 +28°C° 0 mm 1 mps 614 mmHg 13%
    13:00 +29°C° 0 mm 2 mps 614 mmHg 12%
    14:00 +28°C° 0 mm 2 mps 613 mmHg 12%
    15:00 +27°C° 0 mm 2 mps 612 mmHg 13%
    16:00 +26°C° 0 mm 3 mps 612 mmHg 13%
    17:00 +21°C° 0 mm 2 mps 610 mmHg 18%
    18:00 +17°C° 0 mm 2 mps 609 mmHg 23%
    19:00 +13°C° 0 mm 2 mps 608 mmHg 28%
    20:00 +12°C° 0 mm 2 mps 608 mmHg 31%
    21:00 +11°C° 0 mm 1 mps 607 mmHg 34%
    22:00 +10°C° 0 mm 1 mps 607 mmHg 37%
    23:00 +10°C° 0 mm 1 mps 607 mmHg 38%
    Show more